• Join FlightAware (Why Join?)
  • Login
  • US Flag 
03:15AM EST


 

Airport Tracker/Info


-or-


 

Live Flight TrackerFlight Track Log ✈ CTL17 ✈ 24-Jun-2013 ✈ KYIP - KBKL

Flight Track Log - Related Links

Times and Time Zones

All times are in EDT time to prevent confusion due to time zone crossing. See the CTL17 flight status page for this flight to view local times or setup timezone preferences in your user account.

Time Position Orientation Groundspeed Altitude Reporting Facility
EDT Latitude Longitude Course Direction KTS MPH feet Rate Location/Type
05:45PM 42.2150 -83.5664 232° Southwest 119 137 1,400  Level Cleveland Center
05:46PM 42.1872 -83.5986 221° Southwest 127 146 2,100 738 Climbing Cleveland Center
05:47PM 42.1592 -83.6281 218° Southwest 128 147 2,900 492 Climbing Cleveland Center
05:48PM 42.1275 -83.6489 206° Southwest 161 185 3,100 47 Climbing Cleveland Center
05:50PM 42.0803 -83.6158 153° Southeast 161 185 3,000 -47 Descending Cleveland Center
05:51PM 42.0544 -83.5672 126° Southeast 169 194 3,000  Level Cleveland Center
05:52PM 42.0372 -83.5075 111° Southeast 167 192 3,000 49 Level Cleveland Center
05:53PM 42.0178 -83.4508 115° Southeast 172 198 3,100  Climbing Cleveland Center
05:54PM 42.0047 -83.3886 106° East 172 198 3,000 -49 Descending Cleveland Center
05:55PM 41.9875 -83.3264 110° East 168 193 3,000 49 Level Cleveland Center
05:56PM 41.9681 -83.2669 114° Southeast 169 194 3,100 443 Climbing Cleveland Center
05:57PM 41.9547 -83.2133 108° East 157 181 3,900 689 Climbing Cleveland Center
05:58PM 41.9394 -83.1542 109° East 160 184 4,500 545 Climbing Cleveland Center
05:59PM 41.9219 -83.0975 113° Southeast 161 185 5,000 344 Climbing Cleveland Center
06:00PM 41.9044 -83.0411 113° Southeast 171 197 5,200 103 Climbing Cleveland Center
06:01PM 41.8908 -82.9875 109° East 182 209 5,200  Level Cleveland Center
06:02PM 41.8672 -82.9281 118° Southeast 183 211 5,200 -50 Level Cleveland Center
06:03PM 41.8458 -82.8550 111° Southeast 185 213 5,100 -49 Descending Cleveland Center
06:04PM 41.8322 -82.7931 106° East 184 212 5,100  Level Cleveland Center
06:05PM 41.8086 -82.7197 113° Southeast 183 211 5,100 41 Level Cleveland Center
06:06PM 41.7894 -82.6383 108° East 182 209 5,200  Climbing Cleveland Center
06:07PM 41.7794 -82.6075 113° Southeast 181 208 5,100 -62 Descending Cleveland Center
06:08PM 41.7578 -82.5372 112° Southeast 184 212 5,100 47 Level Cleveland Center
06:09PM 41.7381 -82.4697 111° Southeast 183 211 5,200  Climbing Cleveland Center
06:10PM 41.7183 -82.3997 111° Southeast 181 208 5,100 -47 Descending Cleveland Center
06:11PM 41.7006 -82.3297 109° East 185 213 5,100  Level Cleveland Center
06:12PM 41.6850 -82.2597 107° East 186 214 5,100 -98 Level Cleveland Center
06:13PM 41.6650 -82.2008 114° Southeast 188 216 4,900 -362 Descending Cleveland Center
06:14PM 41.6453 -82.1308 111° Southeast 196 226 4,400 -443 Descending Cleveland Center
06:15PM 41.6272 -82.0636 110° East 198 228 4,000 -595 Descending Cleveland Center
06:16PM 41.6072 -81.9939 111° Southeast 198 228 3,200 -446 Descending Cleveland Center
06:17PM 41.5936 -81.9269 105° East 182 209 3,100 -466 Descending Cleveland Center
06:18PM 41.5858 -81.8631 99° East 193 222 2,300 -569 Descending Cleveland Center
06:19PM 41.5742 -81.7961 103° East 178 205 2,000 -198 Descending Cleveland Center
06:20PM 41.5644 -81.7347 102° East 168 193 1,900 -198 Descending Cleveland Center
06:21PM 41.5711 -81.6767 81° East 157 181 1,600 -414 Descending Cleveland Center
06:22PM 41.5444 -81.6483 142° Southeast 128 147 1,100 -545 Descending Cleveland Center